INTELSAT 503

operational
NORAD ID: 12994 Int'l Des: 1981-119 Owner: INTEL Country: I-INT
HEOCIRCULAR

Über INTELSAT 503

Beschreibung wird geladen...

Live-Position

3D-Globus wird geladen...

Nächste Überflüge

Höhenverlauf

Altitude vs Time

uPlot chart will show altitude changes over time

Zweizeiliger Elementsatz

1 12994U 81119A 26063.07891937 -.00000235 00000-0 00000-0 0 9997
2 12994 11.4027 327.7662 0047818 268.5771 300.0101 0.99469728125657
Epoch: 4. März 2026 • Age: 22 hours

Aktueller Status

Höhe 36102.9 km
Geschwindigkeit 3.06 km/s
Subsatellitenpunkt 5.44°N, 16.31°W
Startdatum 15. Dez. 1981
Alter 44.2 years
Typ communications

Technische Details

Klassifizierung Payload
Masse 1004.00 kg
Trockenmasse 775.00 kg
Gesamtmasse 1928.00 kg
Länge 6.40 m
Durchmesser 2.00 m
Spannweite 15.60 m
Form Box + 2 Pan
Hersteller FORDA
Bus-Typ FS INTELSAT 5
Phasenstatus Renamed
Besitzer/Staat INTEL/I-INT

Große Konstellationen

Loading constellations...